Flag for Canada Weather past 2 weeks in Fort Smith, Northwest Territories, Canada

Now
52 °F

Overcast.


Feels Like: 52 °F
Forecast: 42 / 59 °F
Wind: No wind

Location: Fort Smith

Current Time: Sep 18, 2014 at 4:48:56 PM

Latest Report: Sep 18, 2014 at 4:00 PM


Visibility: 15 mi

Pressure: 29.54 "Hg

Humidity: 82%

Dew point: 46 °F

Location of Fort SmithLocation

Historic Weather in Fort Smith — Graph

°F

Fort Smith temperature yesterday

Maximum temperature yesterday: 54 °F (at 6:00 PM)
Minimum temperature yesterday: 37 °F (at 7:00 AM)
Average temperature yesterday: 44 °F

Past Weeks' High & Low Weather Summary

 TemperatureHumidityPressure
High66 °F (Sep 3, 4:00 PM)100% (Sep 4, 5:00 AM)30.61 "Hg (Sep 4, 5:00 AM)
Low30 °F (Sep 5, 6:00 AM)28% (Sep 10, 5:00 PM)29.47 "Hg (Sep 18, 1:00 AM)
Average43 °F73%30.07 "Hg
* Reported Sep 3 3:00 PM — Sep 18 3:00 PM, Fort Smith, Weather by CustomWeather, © 2014

Note: Actual official high and low records may vary slightly from our data, if they occured in-between our weather recording intervals... More about our weather records

Advertising

Fort Smith weather history for previous 24 hours

 ConditionsComfort  
Time TempWeatherWind HumidityBarometerVisibility
3:00 PM
Sep 18
50 °FLow clouds.7 mph88%29.55 "Hg10 mi
2:00 PM48 °FLow clouds.7 mph94%29.56 "Hg8 mi
1:00 PM50 °FFog.5 mph88%29.56 "Hg5 mi
12:00 PM48 °FFog.5 mph94%29.55 "Hg3 mi
11:00 AM46 °FFog.3 mph100%29.54 "Hg1 mi
10:00 AM46 °FFog.3 mph100%29.52 "Hg1 mi
9:00 AM46 °FFog.6 mph100%29.52 "Hg2 mi
8:00 AM46 °FPassing clouds.5 mph100%29.50 "Hg8 mi
7:00 AM46 °FPassing clouds.7 mph93%29.49 "Hg10 mi
6:00 AM46 °FOvercast.6 mph93%29.49 "Hg15 mi
5:00 AM46 °FOvercast.9 mph93%29.48 "Hg15 mi
4:00 AM46 °FPassing clouds.8 mph93%29.48 "Hg15 mi
3:00 AM43 °FPassing clouds.2 mph93%29.47 "Hg15 mi
2:00 AM43 °FPassing clouds.2 mph93%29.47 "Hg15 mi
1:00 AM43 °FPassing clouds.No wind93%29.47 "Hg15 mi
12:00 AM43 °FPassing clouds.3 mph93%29.48 "Hg15 mi
11:00 PM
Sep 17
45 °FPassing clouds.5 mph93%29.48 "Hg15 mi
10:00 PM45 °FPassing clouds.No wind87%29.49 "Hg15 mi
9:00 PM48 °FPartly cloudy.2 mph82%29.50 "Hg15 mi
8:00 PM52 °FMore clouds than sun.6 mph72%29.52 "Hg15 mi
7:00 PM52 °FPartly sunny.6 mph77%29.54 "Hg15 mi
6:00 PM54 °FPartly sunny.13 mph67%29.55 "Hg15 mi
5:00 PM52 °FPartly sunny.12 mph72%29.59 "Hg15 mi
4:00 PM50 °FBroken clouds.7 mph76%29.63 "Hg15 mi
Weather by CustomWeather, © 2014

See weather overviewHow to use our weather pages